Time,TemperatureF,DewpointF,PressureIn,WindDirection,WindDirectionDegrees,WindSpeedMPH,WindSpeedGustMPH,Humidity,HourlyPrecipIn,Conditions,Clouds,dailyrainin,SoftwareType,DateUTC
2013-09-11 00:08:00,51.4,51.0,29.62,NNW,336,1.0,1.0,97,0.00,,,0.00,weatherlink.com 1.10,2013-09-11 09:08:00,
2013-09-11 00:23:00,51.4,51.0,29.62,NNW,336,0.0,0.0,97,0.00,,,0.00,weatherlink.com 1.10,2013-09-11 09:23:00,
2013-09-11 00:38:00,51.5,51.0,29.62,NNW,336,2.0,3.0,97,0.00,,,0.00,weatherlink.com 1.10,2013-09-11 09:38:00,
2013-09-11 00:53:00,51.4,51.0,29.61,NNW,336,1.0,1.0,97,0.00,,,0.00,weatherlink.com 1.10,2013-09-11 09:53:00,
2013-09-11 01:08:00,51.6,51.0,29.61,WNW,293,2.0,8.0,97,0.00,,,0.00,weatherlink.com 1.10,2013-09-11 10:08:00,
2013-09-11 01:23:00,51.5,51.0,29.60,West,280,0.0,7.0,97,0.00,,,0.00,weatherlink.com 1.10,2013-09-11 10:23:00,
2013-09-11 01:38:00,51.6,51.0,29.60,North,5,2.0,4.0,97,0.00,,,0.00,weatherlink.com 1.10,2013-09-11 10:38:00,
2013-09-11 01:53:00,51.5,51.0,29.60,ENE,60,1.0,5.0,97,0.00,,,0.00,weatherlink.com 1.10,2013-09-11 10:53:00,
2013-09-11 02:08:00,51.7,51.0,29.60,ENE,59,1.0,3.0,97,0.00,,,0.00,weatherlink.com 1.10,2013-09-11 11:08:00,
2013-09-11 02:23:00,51.5,51.0,29.60,ENE,74,2.0,3.0,97,0.00,,,0.00,weatherlink.com 1.10,2013-09-11 11:23:00,
2013-09-11 02:38:00,51.3,51.0,29.60,ENE,74,1.0,4.0,97,0.00,,,0.00,weatherlink.com 1.10,2013-09-11 11:38:00,
2013-09-11 02:53:00,51.5,51.0,29.60,West,278,5.0,8.0,97,0.00,,,0.00,weatherlink.com 1.10,2013-09-11 11:53:00,
2013-09-11 03:08:00,51.3,51.0,29.60,WSW,245,12.0,13.0,97,0.00,,,0.00,weatherlink.com 1.10,2013-09-11 12:08:00,
2013-09-11 03:23:00,51.1,50.0,29.60,WSW,246,7.0,11.0,97,0.00,,,0.00,weatherlink.com 1.10,2013-09-11 12:23:00,
2013-09-11 03:38:00,51.3,51.0,29.60,WSW,251,12.0,18.0,97,0.00,,,0.00,weatherlink.com 1.10,2013-09-11 12:38:00,
2013-09-11 03:53:00,51.3,51.0,29.60,WSW,251,9.0,15.0,97,0.00,,,0.00,weatherlink.com 1.10,2013-09-11 12:53:00,
2013-09-11 04:08:00,51.4,50.0,29.60,WSW,246,8.0,12.0,96,0.00,,,0.00,weatherlink.com 1.10,2013-09-11 13:08:00,
2013-09-11 04:23:00,51.7,51.0,29.60,SW,236,9.0,11.0,96,0.00,,,0.00,weatherlink.com 1.10,2013-09-11 13:23:00,
2013-09-11 04:38:00,51.8,51.0,29.60,WSW,255,8.0,12.0,96,0.00,,,0.00,weatherlink.com 1.10,2013-09-11 13:38:00,
2013-09-11 04:53:00,51.7,51.0,29.60,WSW,238,9.0,13.0,96,0.00,,,0.00,weatherlink.com 1.10,2013-09-11 13:53:00,
2013-09-11 05:08:00,51.5,50.0,29.61,SW,236,10.0,14.0,96,0.00,,,0.00,weatherlink.com 1.10,2013-09-11 14:08:00,
2013-09-11 05:23:00,51.9,51.0,29.61,SW,234,7.0,13.0,96,0.00,,,0.00,weatherlink.com 1.10,2013-09-11 14:23:00,
2013-09-11 05:38:00,51.8,51.0,29.61,SW,221,5.0,11.0,96,0.00,,,0.00,weatherlink.com 1.10,2013-09-11 14:38:00,
2013-09-11 05:53:00,51.7,50.0,29.61,SSW,210,2.0,7.0,95,0.00,,,0.00,weatherlink.com 1.10,2013-09-11 14:53:00,
2013-09-11 06:08:00,51.3,50.0,29.61,SSW,198,6.0,13.0,95,0.00,,,0.00,weatherlink.com 1.10,2013-09-11 15:08:00,
2013-09-11 06:23:00,51.1,49.0,29.62,SW,218,6.0,14.0,93,0.00,,,0.00,weatherlink.com 1.10,2013-09-11 15:23:00,
2013-09-11 06:38:00,51.2,49.0,29.62,SW,217,11.0,12.0,92,0.00,,,0.00,weatherlink.com 1.10,2013-09-11 15:38:00,
2013-09-11 06:53:00,51.3,49.0,29.63,SSW,200,8.0,15.0,90,0.00,,,0.00,weatherlink.com 1.10,2013-09-11 15:53:00,
2013-09-11 07:08:00,51.4,48.0,29.64,SSW,200,11.0,19.0,89,0.00,,,0.00,weatherlink.com 1.10,2013-09-11 16:08:00,
2013-09-11 07:23:00,51.6,48.0,29.64,South,180,16.0,21.0,88,0.00,,,0.00,weatherlink.com 1.10,2013-09-11 16:23:00,
2013-09-11 07:38:00,51.5,48.0,29.64,South,179,9.0,15.0,88,0.00,,,0.00,weatherlink.com 1.10,2013-09-11 16:38:00,
2013-09-11 07:53:00,51.5,48.0,29.65,SSW,200,7.0,16.0,87,0.00,,,0.00,weatherlink.com 1.10,2013-09-11 16:53:00,
2013-09-11 08:08:00,51.5,48.0,29.66,SSE,161,8.0,11.0,87,0.00,,,0.00,weatherlink.com 1.10,2013-09-11 17:08:00,
2013-09-11 08:23:00,51.5,48.0,29.66,South,184,9.0,12.0,87,0.00,,,0.00,weatherlink.com 1.10,2013-09-11 17:23:00,
2013-09-11 08:38:00,51.5,48.0,29.67,South,176,11.0,18.0,86,0.00,,,0.00,weatherlink.com 1.10,2013-09-11 17:38:00,
2013-09-11 08:54:00,51.6,47.0,29.68,WSW,238,8.0,15.0,85,0.00,,,0.00,weatherlink.com 1.10,2013-09-11 17:54:00,
2013-09-11 09:09:00,51.7,47.0,29.68,South,184,8.0,19.0,85,0.00,,,0.00,weatherlink.com 1.10,2013-09-11 18:09:00,
2013-09-11 09:24:00,51.8,47.0,29.69,South,189,8.0,14.0,84,0.00,,,0.00,weatherlink.com 1.10,2013-09-11 18:24:00,
2013-09-11 09:39:00,51.8,47.0,29.70,South,182,4.0,16.0,83,0.00,,,0.00,weatherlink.com 1.10,2013-09-11 18:39:00,
2013-09-11 09:54:00,51.9,47.0,29.70,SE,138,8.0,21.0,83,0.00,,,0.00,weatherlink.com 1.10,2013-09-11 18:54:00,
2013-09-11 10:09:00,52.0,47.0,29.71,South,177,10.0,13.0,82,0.00,,,0.00,weatherlink.com 1.10,2013-09-11 19:09:00,
2013-09-11 10:24:00,52.3,47.0,29.71,SE,144,13.0,20.0,81,0.00,,,0.00,weatherlink.com 1.10,2013-09-11 19:24:00,
2013-09-11 10:39:00,52.4,46.0,29.72,SSE,150,10.0,20.0,79,0.00,,,0.00,weatherlink.com 1.10,2013-09-11 19:39:00,
2013-09-11 10:54:00,52.8,46.0,29.72,SSE,155,14.0,23.0,77,0.00,,,0.00,weatherlink.com 1.10,2013-09-11 19:54:00,
2013-09-11 11:09:00,53.1,46.0,29.73,South,190,8.0,19.0,76,0.00,,,0.00,weatherlink.com 1.10,2013-09-11 20:09:00,
2013-09-11 11:24:00,53.7,46.0,29.73,SE,135,9.0,19.0,74,0.00,,,0.00,weatherlink.com 1.10,2013-09-11 20:24:00,
2013-09-11 11:39:00,54.4,46.0,29.73,SE,142,6.0,12.0,73,0.00,,,0.00,weatherlink.com 1.10,2013-09-11 20:39:00,
2013-09-11 12:09:00,53.9,46.0,29.74,SE,138,12.0,12.0,74,0.00,,,0.00,weatherlink.com 1.10,2013-09-11 21:09:00,
2013-09-11 12:24:00,54.4,46.0,29.75,SSE,158,12.0,15.0,72,0.00,,,0.00,weatherlink.com 1.10,2013-09-11 21:24:00,
2013-09-11 12:39:00,54.6,45.0,29.75,SSE,161,8.0,15.0,71,0.00,,,0.00,weatherlink.com 1.10,2013-09-11 21:39:00,
2013-09-11 12:54:00,55.2,45.0,29.75,SE,140,13.0,15.0,68,0.00,,,0.00,weatherlink.com 1.10,2013-09-11 21:54:00,
2013-09-11 13:09:00,55.4,45.0,29.75,SE,134,6.0,13.0,68,0.00,,,0.00,weatherlink.com 1.10,2013-09-11 22:09:00,
2013-09-11 13:24:00,55.5,45.0,29.75,SE,138,11.0,12.0,68,0.00,,,0.00,weatherlink.com 1.10,2013-09-11 22:24:00,
2013-09-11 13:39:00,55.4,45.0,29.76,SE,145,9.0,16.0,68,0.00,,,0.00,weatherlink.com 1.10,2013-09-11 22:39:00,
2013-09-11 13:54:00,55.6,46.0,29.76,SE,132,6.0,12.0,69,0.00,,,0.00,weatherlink.com 1.10,2013-09-11 22:54:00,
2013-09-11 14:09:00,55.8,45.0,29.76,SE,141,9.0,13.0,68,0.00,,,0.00,weatherlink.com 1.10,2013-09-11 23:09:00,
2013-09-11 14:24:00,56.0,45.0,29.77,SSE,157,11.0,12.0,67,0.00,,,0.00,weatherlink.com 1.10,2013-09-11 23:24:00,
2013-09-11 14:39:00,56.0,46.0,29.77,SSE,149,12.0,13.0,69,0.00,,,0.00,weatherlink.com 1.10,2013-09-11 23:39:00,
2013-09-11 14:54:00,56.1,45.0,29.77,SSE,149,11.0,12.0,67,0.00,,,0.00,weatherlink.com 1.10,2013-09-11 23:54:00,
2013-09-11 15:09:00,56.1,46.0,29.78,South,188,10.0,12.0,68,0.00,,,0.00,weatherlink.com 1.10,2013-09-12 00:09:00,
2013-09-11 15:24:00,56.0,46.0,29.78,South,186,5.0,12.0,68,0.00,,,0.00,weatherlink.com 1.10,2013-09-12 00:24:00,
2013-09-11 15:39:00,56.1,46.0,29.78,SE,143,9.0,9.0,69,0.00,,,0.00,weatherlink.com 1.10,2013-09-12 00:39:00,
2013-09-11 15:54:00,56.7,49.0,29.78,SE,125,10.0,11.0,74,0.00,,,0.00,weatherlink.com 1.10,2013-09-12 00:54:00,
2013-09-11 16:09:00,56.4,48.0,29.79,SE,128,2.0,12.0,74,0.00,,,0.00,weatherlink.com 1.10,2013-09-12 01:09:00,
2013-09-11 16:24:00,56.6,48.0,29.78,ENE,69,9.0,11.0,74,0.00,,,0.00,weatherlink.com 1.10,2013-09-12 01:24:00,
2013-09-11 16:40:00,55.8,47.0,29.79,SE,125,9.0,13.0,73,0.00,,,0.00,weatherlink.com 1.10,2013-09-12 01:40:00,
2013-09-11 16:55:00,55.4,47.0,29.79,ESE,113,10.0,16.0,74,0.00,,,0.00,weatherlink.com 1.10,2013-09-12 01:55:00,
2013-09-11 17:10:00,55.5,47.0,29.79,East,94,7.0,14.0,74,0.00,,,0.00,weatherlink.com 1.10,2013-09-12 02:10:00,
2013-09-11 17:25:00,55.6,46.0,29.79,SE,127,9.0,13.0,71,0.00,,,0.00,weatherlink.com 1.10,2013-09-12 02:25:00,
2013-09-11 17:40:00,56.0,47.0,29.79,ESE,118,5.0,10.0,72,0.00,,,0.00,weatherlink.com 1.10,2013-09-12 02:40:00,
2013-09-11 17:55:00,55.3,47.0,29.79,East,92,4.0,10.0,74,0.00,,,0.00,weatherlink.com 1.10,2013-09-12 02:55:00,
2013-09-11 18:10:00,54.7,47.0,29.79,SE,144,7.0,9.0,75,0.00,,,0.00,weatherlink.com 1.10,2013-09-12 03:10:00,
2013-09-11 18:25:00,54.6,46.0,29.80,ESE,118,6.0,12.0,73,0.00,,,0.00,weatherlink.com 1.10,2013-09-12 03:25:00,
2013-09-11 18:40:00,54.2,47.0,29.80,SE,126,6.0,9.0,76,0.00,,,0.00,weatherlink.com 1.10,2013-09-12 03:40:00,
2013-09-11 18:55:00,53.5,46.0,29.80,SE,125,7.0,12.0,75,0.00,,,0.00,weatherlink.com 1.10,2013-09-12 03:55:00,
2013-09-11 19:10:00,53.2,45.0,29.80,SE,137,9.0,14.0,74,0.00,,,0.00,weatherlink.com 1.10,2013-09-12 04:10:00,
2013-09-11 19:25:00,52.9,45.0,29.81,ESE,105,5.0,13.0,75,0.00,,,0.00,weatherlink.com 1.10,2013-09-12 04:25:00,
2013-09-11 19:40:00,52.1,45.0,29.82,ESE,117,3.0,9.0,77,0.00,,,0.00,weatherlink.com 1.10,2013-09-12 04:40:00,
2013-09-11 19:55:00,51.8,46.0,29.82,ESE,121,3.0,12.0,80,0.00,,,0.00,weatherlink.com 1.10,2013-09-12 04:55:00,
2013-09-11 20:10:00,52.0,46.0,29.83,East,93,9.0,15.0,79,0.00,,,0.00,weatherlink.com 1.10,2013-09-12 05:10:00,
2013-09-11 20:25:00,51.6,45.0,29.83,East,98,8.0,11.0,79,0.00,,,0.00,weatherlink.com 1.10,2013-09-12 05:25:00,
2013-09-11 20:40:00,51.3,45.0,29.84,ESE,105,5.0,11.0,79,0.00,,,0.00,weatherlink.com 1.10,2013-09-12 05:40:00,
2013-09-11 20:55:00,51.0,45.0,29.83,ESE,119,7.0,11.0,80,0.00,,,0.00,weatherlink.com 1.10,2013-09-12 05:55:00,
2013-09-11 21:10:00,51.0,45.0,29.84,ESE,113,9.0,13.0,80,0.00,,,0.00,weatherlink.com 1.10,2013-09-12 06:10:00,
2013-09-11 21:25:00,50.8,45.0,29.84,East,84,7.0,10.0,80,0.00,,,0.00,weatherlink.com 1.10,2013-09-12 06:25:00,
2013-09-11 21:40:00,50.8,45.0,29.84,SE,132,7.0,11.0,80,0.00,,,0.00,weatherlink.com 1.10,2013-09-12 06:40:00,
2013-09-11 21:55:00,50.9,45.0,29.84,ESE,122,7.0,12.0,80,0.00,,,0.00,weatherlink.com 1.10,2013-09-12 06:55:00,
2013-09-11 22:10:00,50.8,46.0,29.85,ESE,120,6.0,11.0,82,0.00,,,0.00,weatherlink.com 1.10,2013-09-12 07:10:00,
2013-09-11 22:25:00,50.5,45.0,29.85,ESE,109,5.0,10.0,82,0.00,,,0.00,weatherlink.com 1.10,2013-09-12 07:25:00,
2013-09-11 22:40:00,49.8,45.0,29.85,SE,144,7.0,9.0,84,0.00,,,0.00,weatherlink.com 1.10,2013-09-12 07:40:00,
2013-09-11 22:55:00,49.2,45.0,29.86,ESE,109,1.0,5.0,85,0.00,,,0.00,weatherlink.com 1.10,2013-09-12 07:55:00,
2013-09-11 23:10:00,48.5,45.0,29.86,ESE,103,1.0,4.0,86,0.00,,,0.00,weatherlink.com 1.10,2013-09-12 08:10:00,
2013-09-11 23:25:00,48.0,44.0,29.86,ESE,103,0.0,1.0,87,0.00,,,0.00,weatherlink.com 1.10,2013-09-12 08:25:00,
2013-09-11 23:40:00,47.8,45.0,29.86,ESE,103,0.0,2.0,88,0.00,,,0.00,weatherlink.com 1.10,2013-09-12 08:40:00,
2013-09-11 23:55:00,47.6,45.0,29.86,East,98,0.0,4.0,89,0.00,,,0.00,weatherlink.com 1.10,2013-09-12 08:55:00,